Location: 3 Angels Observatory
(30.5437°N, 88.5068°W)
Time: 06:04:10
(UTC-05:00)

Amateur Radio Satellites - All Passes

Search period start: 28 August 2014 05:34
Search period end: 29 August 2014 05:34
Location: 3 Angels Observatory, 30.5437°N, 88.5068°W

Satellite Date Start Highest point End Downlink Frequencies (MHz)
Time Altitude Azimuth
UOSAT-12 28 Aug 05:42:55 05:47:17 48° 114° (ESE) 05:51:45 437.025 FM, 437.400 FM
AO-7 28 Aug 05:50:17 05:58:26 65° 290° (WNW) 06:06:34 29.400 - 29.500 MHz
Hamsat 28 Aug 05:50:21 05:53:03 16° 94° (E) 05:55:43 145.90 MHz
Uosat F 28 Aug 05:59:19 06:03:39 30° 289° (WNW) 06:07:58 435.120 FM
STRAND 1 28 Aug 06:10:50 06:14:57 25° 70° (ENE) 06:19:03 ?
JAS-2 28 Aug 06:36:34 06:41:43 53° 101° (E) 06:47:18 435.800 - 435.900 CW/SSB, 435.910 FM
Oscar 10/S400 28 Aug 06:54:43 07:29:33 12° 264° (W) 08:15:39 145.825 - 145.975 CW/USB, Beacon 145.810 USB
RS-15 28 Aug 07:08:13 07:18:15 40° 107° (ESE) 07:28:01 29.354 - 29.394 USB, Beacon 29.352 USB
SO-67 28 Aug 07:09:28 07:11:29 15° 95° (E) 07:13:30 435.3500 MHz FM
UOSAT-12 28 Aug 07:24:55 07:27:40 15° 309° (NW) 07:30:27 437.025 FM, 437.400 FM
Hamsat 28 Aug 07:25:10 07:29:00 31° 287° (WNW) 07:32:48 145.90 MHz
STRAND 1 28 Aug 07:49:35 07:53:57 29° 262° (W) 07:58:20 ?
JAS-2 28 Aug 08:23:44 08:26:27 14° 293° (WNW) 08:29:16 435.800 - 435.900 CW/SSB, 435.910 FM
Saudisat 1A 28 Aug 08:29:48 08:33:58 40° 59° (ENE) 08:38:06 436.775 MHz
SO-67 28 Aug 08:41:51 08:44:26 20° 287° (WNW) 08:47:01 435.3500 MHz FM
HO-68 28 Aug 08:44:47 08:49:46 20° 96° (E) 08:54:44 435.675 MHz FM
KITSAT 1 28 Aug 08:52:08 08:59:18 34° 55° (NE) 09:06:24 435.175 FM
RS-15 28 Aug 09:19:38 09:30:13 49° 304° (NW) 09:40:41 29.354 - 29.394 USB, Beacon 29.352 USB
Saudisat 1A 28 Aug 10:10:51 10:13:08 14° 252° (WSW) 10:15:26 436.775 MHz
HO-68 28 Aug 10:30:45 10:37:44 59° 289° (WNW) 10:44:43 435.675 MHz FM
UKube-1 28 Aug 10:34:29 10:38:46 61° 285° (WNW) 10:43:01 145.840 MHz, 145.915 MHz
Oscar 11 28 Aug 10:43:26 10:47:49 78° 283° (WNW) 10:52:09 145.825 FM, Beacon 2401.500 USB
KITSAT 1 28 Aug 10:47:12 10:54:44 45° 251° (WSW) 11:02:15 435.175 FM
FUNcube-1 28 Aug 11:01:27 11:05:56 60° 101° (E) 11:10:28 145.950 - 145.970 MHz USB
ISS 28 Aug 11:09:41 11:12:57 59° 316° (NW) 11:16:14 145.800 FM
RS-15 28 Aug 11:43:01 11:46:10 11° 332° (NNW) 11:49:20 29.354 - 29.394 USB, Beacon 29.352 USB
PANSAT 28 Aug 12:32:30 12:35:55 30° 162° (SSE) 12:39:19 not established
Oscar 16 28 Aug 12:48:32 12:52:18 21° 68° (ENE) 12:56:06 437.025 USB, Beacon 2401.1428
AO-Echo 28 Aug 13:04:23 13:06:23 12° 67° (ENE) 13:08:21 ?
AO-27 28 Aug 13:10:13 13:12:45 14° 66° (ENE) 13:15:17 436.795 MHz FM
MaSat-1 28 Aug 13:23:39 13:28:08 53° 107° (ESE) 13:33:03 437.345 MHz
JAS-1B 28 Aug 13:26:25 13:34:54 35° 67° (ENE) 13:42:53 435.800 - 435.900 CW/SSB
SO-50 28 Aug 13:43:38 13:48:24 60° 61° (ENE) 13:53:11 436.795 FM
Oscar 19 28 Aug 13:51:42 13:56:50 87° 257° (WSW) 14:02:02 437.125 CW, 437.150 USB
PANSAT 28 Aug 14:12:03 14:15:51 60° 174° (S) 14:19:40 not established
TMSAT-1 28 Aug 14:15:24 14:19:03 19° 68° (ENE) 14:22:43 436.925 FM
ITAMSAT 1 28 Aug 14:18:13 14:23:22 73° 75° (ENE) 14:28:31 435.822 SSB
UOSAT-12 28 Aug 14:20:32 14:21:39 11° 48° (NE) 14:22:47 437.025 FM, 437.400 FM
Oscar 16 28 Aug 14:26:42 14:31:22 35° 262° (W) 14:36:04 437.025 USB, Beacon 2401.1428
Uribyol 2 28 Aug 14:28:51 14:34:00 82° 257° (WSW) 14:39:11 436.500 FM
AO-Echo 28 Aug 14:39:34 14:44:39 59° 259° (W) 14:49:34 ?
AO-27 28 Aug 14:46:40 14:51:44 56° 259° (W) 14:56:49 436.795 MHz FM
AO-7 28 Aug 14:53:28 14:58:54 19° 59° (ENE) 15:04:18 29.400 - 29.500 MHz
Gurwin Techsat 1B 28 Aug 15:00:02 15:05:19 80° 76° (ENE) 15:10:38 435.225 FM
MaSat-1 28 Aug 15:02:45 15:05:34 15° 304° (NW) 15:08:29 437.345 MHz
JAS-1B 28 Aug 15:15:17 15:24:53 54° 260° (W) 15:34:00 435.800 - 435.900 CW/SSB
SO-50 28 Aug 15:26:57 15:28:26 11° 253° (WSW) 15:29:56 436.795 FM
Uosat F 28 Aug 15:29:37 15:32:57 18° 68° (ENE) 15:36:17 435.120 FM
PANSAT 28 Aug 15:52:08 15:55:55 56° 187° (S) 15:59:42 not established
TMSAT-1 28 Aug 15:53:41 15:58:37 40° 261° (W) 16:03:35 436.925 FM
UOSAT-12 28 Aug 15:57:37 16:02:19 76° 244° (WSW) 16:06:55 437.025 FM, 437.400 FM
RS-15 28 Aug 16:15:48 16:24:59 29° 47° (NE) 16:34:23 29.354 - 29.394 USB, Beacon 29.352 USB
Oscar 10/S400 28 Aug 16:26:35 16:46:46 40° 150° (SSE) 17:06:58 145.825 - 145.975 CW/USB, Beacon 145.810 USB
Sapphire 28 Aug 16:34:55 16:39:26 28° 107° (ESE) 16:43:59 437.095 MHz 1200 baud AX-25 AFSK
AO-7 28 Aug 16:42:24 16:50:45 78° 254° (WSW) 16:59:06 29.400 - 29.500 MHz
JAS-2 28 Aug 16:46:37 16:48:59 12° 66° (ENE) 16:51:15 435.800 - 435.900 CW/SSB, 435.910 FM
OPAL 28 Aug 16:46:41 16:51:24 34° 100° (E) 16:56:04 ?
PCSat 28 Aug 17:03:44 17:09:01 61° 111° (ESE) 17:14:22 145.825 MHz
Uosat F 28 Aug 17:06:43 17:11:23 39° 261° (W) 17:16:04 435.120 FM
PANSAT 28 Aug 17:32:35 17:35:50 26° 199° (SSW) 17:39:04 not established
ISS 28 Aug 17:44:19 17:45:44 12° 33° (NNE) 17:47:09 145.800 FM
Hamsat 28 Aug 18:12:08 18:16:25 89° 77° (ENE) 18:20:45 145.90 MHz
Sapphire 28 Aug 18:18:02 18:22:42 30° 301° (WNW) 18:27:25 437.095 MHz 1200 baud AX-25 AFSK
OPAL 28 Aug 18:25:59 18:30:01 23° 293° (WNW) 18:34:01 ?
JAS-2 28 Aug 18:26:57 18:33:35 76° 257° (WSW) 18:39:26 435.800 - 435.900 CW/SSB, 435.910 FM
RS-15 28 Aug 18:27:06 18:38:14 74° 247° (WSW) 18:49:52 29.354 - 29.394 USB, Beacon 29.352 USB
STRAND 1 28 Aug 18:28:25 18:30:43 13° 94° (E) 18:32:59 ?
AO-7 28 Aug 18:44:10 18:44:24 10° 268° (W) 18:44:38 29.400 - 29.500 MHz
PCSat 28 Aug 18:49:43 18:52:49 15° 307° (NW) 18:55:55 145.825 MHz
SO-67 28 Aug 19:08:33 19:11:53 47° 76° (ENE) 19:15:14 435.3500 MHz FM
ISS 28 Aug 19:19:27 19:22:44 59° 228° (SW) 19:26:00 145.800 FM
STRAND 1 28 Aug 20:05:10 20:10:07 53° 286° (WNW) 20:15:03 ?
RS-15 28 Aug 20:46:00 20:48:51 11° 261° (W) 20:51:44 29.354 - 29.394 USB, Beacon 29.352 USB
HO-68 28 Aug 20:52:35 20:59:34 60° 71° (ENE) 21:06:34 435.675 MHz FM
UKube-1 28 Aug 21:24:18 21:28:32 54° 75° (ENE) 21:32:46 145.840 MHz, 145.915 MHz
Oscar 11 28 Aug 21:33:00 21:37:00 38° 74° (ENE) 21:41:02 145.825 FM, Beacon 2401.500 USB
FUNcube-1 28 Aug 21:53:27 21:56:41 22° 71° (ENE) 21:59:57 145.950 - 145.970 MHz USB
Saudisat 1A 28 Aug 22:30:53 22:34:59 40° 113° (ESE) 22:39:07 436.775 MHz
HO-68 28 Aug 22:42:41 22:47:33 20° 265° (W) 22:52:26 435.675 MHz FM
Oscar 11 28 Aug 23:11:18 23:13:17 13° 266° (W) 23:15:16 145.825 FM, Beacon 2401.500 USB
KITSAT 1 28 Aug 23:13:28 23:21:08 49° 109° (ESE) 23:28:48 435.175 FM
MaSat-1 28 Aug 23:24:14 23:28:17 34° 62° (ENE) 23:31:48 437.345 MHz
FUNcube-1 28 Aug 23:29:51 23:32:57 21° 264° (W) 23:36:07 145.950 - 145.970 MHz USB
Saudisat 1A 29 Aug 00:11:57 00:14:42 16° 307° (NW) 00:17:28 436.775 MHz
MaSat-1 29 Aug 01:02:53 01:04:44 13° 261° (W) 01:06:28 437.345 MHz
Oscar 16 29 Aug 01:07:42 01:09:08 11° 93° (E) 01:10:34 437.025 USB, Beacon 2401.1428
KITSAT 1 29 Aug 01:09:39 01:16:39 32° 305° (NW) 01:23:41 435.175 FM
PCSat 29 Aug 01:58:48 02:02:05 16° 54° (NE) 02:05:20 145.825 MHz
Oscar 19 29 Aug 02:09:09 02:14:15 54° 101° (E) 02:19:18 437.125 CW, 437.150 USB
ITAMSAT 1 29 Aug 02:37:02 02:41:55 41° 99° (E) 02:46:47 435.822 SSB
TMSAT-1 29 Aug 02:38:24 02:39:57 11° 93° (E) 02:41:29 436.925 FM
Oscar 16 29 Aug 02:43:39 02:48:47 63° 285° (WNW) 02:53:53 437.025 USB, Beacon 2401.1428
Uribyol 2 29 Aug 02:47:21 02:52:28 58° 101° (E) 02:57:34 436.500 FM
AO-Echo 29 Aug 02:52:31 02:57:12 70° 102° (ESE) 03:01:54 ?
AO-27 29 Aug 03:05:17 03:10:29 85° 103° (ESE) 03:15:41 436.795 MHz FM
JAS-1B 29 Aug 03:09:57 03:16:31 71° 102° (ESE) 03:22:16 435.800 - 435.900 CW/SSB
Sapphire 29 Aug 03:10:44 03:16:09 67° 65° (ENE) 03:21:31 437.095 MHz 1200 baud AX-25 AFSK
Gurwin Techsat 1B 29 Aug 03:22:09 03:27:19 51° 100° (E) 03:32:27 435.225 FM
PCSat 29 Aug 03:40:31 03:45:50 58° 249° (WSW) 03:51:06 145.825 MHz
Oscar 19 29 Aug 03:50:24 03:53:04 14° 294° (WNW) 03:55:43 437.125 CW, 437.150 USB
SO-50 29 Aug 03:53:16 03:57:41 73° 116° (ESE) 04:02:11 436.795 FM
OPAL 29 Aug 03:56:24 04:00:48 32° 69° (ENE) 04:05:17 ?
TMSAT-1 29 Aug 04:14:57 04:20:11 64° 285° (WNW) 04:25:24 436.925 FM
ITAMSAT 1 29 Aug 04:17:35 04:21:03 18° 292° (WNW) 04:24:30 435.822 SSB
Uribyol 2 29 Aug 04:28:59 04:31:23 13° 294° (WNW) 04:33:48 436.500 FM
AO-7 29 Aug 04:50:34 04:58:37 53° 103° (ESE) 05:06:36 29.400 - 29.500 MHz
Sapphire 29 Aug 04:57:18 04:58:54 11° 257° (WSW) 05:00:30 437.095 MHz 1200 baud AX-25 AFSK
JAS-1B 29 Aug 05:03:25 05:06:06 13° 301° (WNW) 05:08:39 435.800 - 435.900 CW/SSB
Gurwin Techsat 1B 29 Aug 05:03:47 05:06:47 15° 294° (WNW) 05:09:47 435.225 FM
Uosat F 29 Aug 05:19:43 05:24:43 80° 284° (WNW) 05:29:43 435.120 FM
